• en Suisse
  • Liste des pays
  • À 7 jours
  • Température de l'eau
  • Carte satellitaire
  • Carte météo
  • Widgets météo
  • user-avatar
    Se connecter

    Météo par heure à Northampton

    Ce jour, 15 Août, Mercredi

    Heure Température Précipitation Vent Pression Humidité
    00:00 +16°C° 0 mm 2 m/s 754 mmHg 90%
    01:00 +16°C° 0 mm 3 m/s 754 mmHg 90%
    02:00 +16°C° 0 mm 3 m/s 754 mmHg 91%
    03:00 +15°C° 0 mm 4 m/s 754 mmHg 92%
    04:00 +15°C° 0 mm 4 m/s 754 mmHg 90%
    05:00 +17°C° 0 mm 4 m/s 754 mmHg 88%
    06:00 +18°C° 0 mm 3 m/s 754 mmHg 86%
    07:00 +18°C° 0 mm 4 m/s 754 mmHg 83%
    08:00 +19°C° 0 mm 5 m/s 754 mmHg 80%
    09:00 +20°C° 0 mm 5 m/s 754 mmHg 77%
    10:00 +20°C° 0 mm 6 m/s 754 mmHg 74%
    11:00 +21°C° 0 mm 6 m/s 754 mmHg 71%
    12:00 +22°C° 0 mm 5 m/s 753 mmHg 68%
    13:00 +22°C° 0 mm 6 m/s 753 mmHg 66%
    14:00 +23°C° 0 mm 6 m/s 753 mmHg 65%
    15:00 +23°C° 0 mm 7 m/s 753 mmHg 63%
    16:00 +23°C° 0 mm 6 m/s 752 mmHg 65%
    17:00 +22°C° 0 mm 6 m/s 752 mmHg 67%
    18:00 +22°C° 0 mm 6 m/s 752 mmHg 69%
    19:00 +21°C° 0 mm 5 m/s 752 mmHg 74%
    20:00 +20°C° 0 mm 5 m/s 752 mmHg 79%
    21:00 +19°C° 0 mm 5 m/s 752 mmHg 83%
    22:00 +17°C° 0 mm 5 m/s 751 mmHg 85%
    23:00 +17°C° 0 mm 6 m/s 751 mmHg 87%

    Demain, 16 Août, Jeudi

    Heure Température Précipitation Vent Pression Humidité
    00:00 +17°C° 0 mm 6 m/s 751 mmHg 89%
    01:00 +17°C° 0,2 mm 6 m/s 750 mmHg 88%
    02:00 +17°C° 0,2 mm 6 m/s 750 mmHg 88%
    03:00 +17°C° 0,2 mm 6 m/s 750 mmHg 88%
    04:00 +17°C° 1,2 mm 6 m/s 749 mmHg 88%
    05:00 +17°C° 1,2 mm 5 m/s 749 mmHg 89%
    06:00 +17°C° 1,2 mm 5 m/s 749 mmHg 89%
    07:00 +16°C° 2,5 mm 5 m/s 749 mmHg 89%
    08:00 +17°C° 2,5 mm 4 m/s 750 mmHg 89%
    09:00 +15°C° 2,5 mm 4 m/s 750 mmHg 90%
    10:00 +15°C° 1 mm 4 m/s 750 mmHg 86%
    11:00 +15°C° 1 mm 4 m/s 750 mmHg 82%
    12:00 +15°C° 1 mm 4 m/s 751 mmHg 78%
    13:00 +17°C° 0 mm 4 m/s 751 mmHg 73%
    14:00 +17°C° 0 mm 5 m/s 751 mmHg 68%
    15:00 +19°C° 0 mm 5 m/s 751 mmHg 63%
    16:00 +19°C° 0 mm 4 m/s 751 mmHg 63%
    17:00 +19°C° 0 mm 4 m/s 751 mmHg 63%
    18:00 +19°C° 0 mm 4 m/s 751 mmHg 64%
    19:00 +17°C° 0 mm 3 m/s 752 mmHg 69%
    20:00 +16°C° 0 mm 3 m/s 752 mmHg 74%
    21:00 +14°C° 0 mm 3 m/s 752 mmHg 79%
    22:00 +13°C° 0 mm 3 m/s 753 mmHg 82%
    23:00 +13°C° 0 mm 3 m/s 753 mmHg 85%

    Après-demain, 17 Août, Vendredi

    Heure Température Précipitation Vent Pression Humidité
    00:00 +12°C° 0 mm 3 m/s 753 mmHg 87%
    01:00 +13°C° 0 mm 2 m/s 753 mmHg 89%
    02:00 +12°C° 0 mm 2 m/s 753 mmHg 90%
    03:00 +12°C° 0 mm 2 m/s 753 mmHg 91%
    04:00 +12°C° 0 mm 2 m/s 754 mmHg 91%
    05:00 +12°C° 0 mm 2 m/s 754 mmHg 90%
    06:00 +12°C° 0 mm 2 m/s 754 mmHg 89%
    07:00 +13°C° 0 mm 3 m/s 755 mmHg 81%
    08:00 +16°C° 0 mm 3 m/s 755 mmHg 74%
    09:00 +17°C° 0 mm 3 m/s 755 mmHg 66%
    10:00 +18°C° 0 mm 4 m/s 755 mmHg 63%
    11:00 +19°C° 0 mm 4 m/s 755 mmHg 59%
    12:00 +19°C° 0 mm 4 m/s 755 mmHg 56%
    13:00 +20°C° 0 mm 5 m/s 755 mmHg 55%
    14:00 +20°C° 0 mm 5 m/s 755 mmHg 54%
    15:00 +21°C° 0 mm 5 m/s 755 mmHg 53%
    16:00 +20°C° 0 mm 5 m/s 755 mmHg 57%
    17:00 +19°C° 0 mm 5 m/s 755 mmHg 60%
    18:00 +19°C° 0 mm 4 m/s 755 mmHg 63%
    19:00 +18°C° 0 mm 4 m/s 755 mmHg 69%
    20:00 +17°C° 0 mm 4 m/s 755 mmHg 74%
    21:00 +16°C° 0 mm 3 m/s 755 mmHg 80%
    22:00 +14°C° 0 mm 4 m/s 755 mmHg 83%
    23:00 +14°C° 0 mm 4 m/s 755 mmHg 85%

    18 Août, Samedi

    Heure Température Précipitation Vent Pression Humidité
    00:00 +14°C° 0 mm 5 m/s 755 mmHg 88%
    01:00 +14°C° 0 mm 5 m/s 755 mmHg 89%
    02:00 +14°C° 0 mm 5 m/s 755 mmHg 90%
    03:00 +14°C° 0 mm 5 m/s 755 mmHg 91%
    04:00 +14°C° 0 mm 5 m/s 755 mmHg 90%
    05:00 +15°C° 0 mm 5 m/s 755 mmHg 88%
    06:00 +15°C° 0 mm 5 m/s 755 mmHg 87%
    07:00 +16°C° 0 mm 5 m/s 755 mmHg 83%
    08:00 +17°C° 0 mm 5 m/s 755 mmHg 79%
    09:00 +19°C° 0 mm 5 m/s 756 mmHg 75%
    10:00 +20°C° 0 mm 5 m/s 756 mmHg 71%
    11:00 +21°C° 0 mm 5 m/s 756 mmHg 67%
    12:00 +22°C° 0 mm 6 m/s 756 mmHg 63%
    13:00 +23°C° 0 mm 5 m/s 755 mmHg 62%
    14:00 +23°C° 0 mm 5 m/s 755 mmHg 60%
    15:00 +25°C° 0 mm 5 m/s 755 mmHg 59%
    16:00 +23°C° 0 mm 4 m/s 755 mmHg 61%
    17:00 +23°C° 0 mm 4 m/s 756 mmHg 64%
    18:00 +24°C° 0 mm 3 m/s 756 mmHg 66%
    19:00 +21°C° 0 mm 3 m/s 756 mmHg 71%
    20:00 +20°C° 0 mm 3 m/s 756 mmHg 76%
    21:00 +19°C° 0 mm 3 m/s 756 mmHg 82%
    22:00 +18°C° 0 mm 3 m/s 756 mmHg 85%
    23:00 +17°C° 0 mm 3 m/s 756 mmHg 87%

    19 Août, Dimanche

    Heure Température Précipitation Vent Pression Humidité
    00:00 +17°C° 0 mm 3 m/s 756 mmHg 90%
    01:00 +17°C° 0 mm 3 m/s 756 mmHg 92%
    02:00 +16°C° 0 mm 3 m/s 755 mmHg 93%
    03:00 +16°C° 0 mm 3 m/s 755 mmHg 95%
    04:00 +17°C° 0 mm 4 m/s 755 mmHg 94%
    05:00 +17°C° 0 mm 4 m/s 755 mmHg 94%
    06:00 +17°C° 0 mm 5 m/s 754 mmHg 93%
    07:00 +17°C° 0,1 mm 6 m/s 754 mmHg 90%
    08:00 +19°C° 0,1 mm 6 m/s 754 mmHg 88%
    09:00 +20°C° 0,1 mm 7 m/s 754 mmHg 86%
    10:00 +20°C° 0 mm 7 m/s 754 mmHg 83%
    11:00 +21°C° 0 mm 7 m/s 754 mmHg 81%
    12:00 +21°C° 0 mm 7 m/s 754 mmHg 78%
    13:00 +22°C° 0,1 mm 7 m/s 754 mmHg 76%
    14:00 +22°C° 0,1 mm 7 m/s 754 mmHg 73%
    15:00 +23°C° 0,1 mm 7 m/s 754 mmHg 71%
    16:00 +22°C° 0 mm 6 m/s 754 mmHg 72%
    17:00 +22°C° 0 mm 5 m/s 754 mmHg 73%
    18:00 +22°C° 0 mm 5 m/s 754 mmHg 75%
    19:00 +21°C° 0 mm 4 m/s 755 mmHg 79%
    20:00 +20°C° 0 mm 4 m/s 755 mmHg 82%
    21:00 +19°C° 0 mm 4 m/s 755 mmHg 86%
    22:00 +19°C° 0 mm 4 m/s 755 mmHg 89%
    23:00 +18°C° 0 mm 4 m/s 755 mmHg 91%

    20 Août, Lundi

    Heure Température Précipitation Vent Pression Humidité
    00:00 +18°C° 0 mm 4 m/s 755 mmHg 94%
    01:00 +17°C° 0 mm 4 m/s 755 mmHg 94%
    02:00 +17°C° 0 mm 4 m/s 755 mmHg 95%
    03:00 +17°C° 0 mm 4 m/s 755 mmHg 96%
    04:00 +17°C° 0 mm 4 m/s 755 mmHg 95%
    05:00 +18°C° 0 mm 4 m/s 755 mmHg 94%
    06:00 +18°C° 0 mm 4 m/s 755 mmHg 93%
    07:00 +19°C° 0 mm 4 m/s 756 mmHg 87%
    08:00 +20°C° 0 mm 4 m/s 756 mmHg 82%
    09:00 +21°C° 0 mm 5 m/s 756 mmHg 76%
    10:00 +21°C° 0 mm 5 m/s 756 mmHg 72%
    11:00 +22°C° 0 mm 4 m/s 756 mmHg 68%
    12:00 +22°C° 0 mm 4 m/s 756 mmHg 64%
    13:00 +23°C° 0 mm 4 m/s 756 mmHg 64%
    14:00 +23°C° 0 mm 4 m/s 756 mmHg 64%
    15:00 +23°C° 0 mm 4 m/s 756 mmHg 64%
    16:00 +22°C° 0 mm 4 m/s 756 mmHg 66%
    17:00 +22°C° 0 mm 3 m/s 756 mmHg 68%
    18:00 +22°C° 0 mm 3 m/s 757 mmHg 70%
    19:00 +21°C° 0 mm 3 m/s 757 mmHg 72%
    20:00 +20°C° 0 mm 2 m/s 757 mmHg 75%
    21:00 +19°C° 0 mm 2 m/s 758 mmHg 78%
    22:00 +18°C° 0 mm 2 m/s 758 mmHg 81%
    23:00 +17°C° 0 mm 2 m/s 758 mmHg 84%
    Voir plus